Radiation Dose at Monitoring Post of Fukushima Daini Nuclear Power Station
Date,Time,MP-1(microSv/h),MP-2(microSv/h),MP-3(microSv/h),MP-4(microSv/h),MP-5(microSv/h),MP-6(microSv/h),MP-7(microSv/h),Wind Direction,Wind Velocity(m/s),Rain
2018/02/27,00:00,0.337,0.211,0.347,0.328,0.308,0.172,0.103,north,5.9,No
2018/02/27,00:10,0.339,0.210,0.347,0.328,0.308,0.172,0.105,north,5.5,No
2018/02/27,00:20,0.340,0.211,0.347,0.329,0.308,0.172,0.103,north,3.7,No
2018/02/27,00:30,0.339,0.211,0.348,0.329,0.307,0.173,0.103,north,5.2,No
2018/02/27,00:40,0.339,0.211,0.347,0.329,0.309,0.171,0.103,north,4.9,No
2018/02/27,00:50,0.340,0.213,0.346,0.329,0.307,0.172,0.103,north,5.0,No
2018/02/27,01:00,0.339,0.211,0.347,0.330,0.308,0.171,0.104,north-northwest,3.9,No
2018/02/27,01:10,0.339,0.211,0.347,0.329,0.307,0.173,0.103,north-northwest,3.6,No
2018/02/27,01:20,0.340,0.211,0.348,0.329,0.309,0.173,0.103,north-northwest,3.4,No
2018/02/27,01:30,0.338,0.210,0.348,0.329,0.306,0.172,0.103,north-northwest,3.6,No
2018/02/27,01:40,0.339,0.210,0.347,0.329,0.307,0.172,0.102,north-northwest,3.6,No
2018/02/27,01:50,0.339,0.210,0.348,0.329,0.307,0.172,0.103,north,3.2,No
2018/02/27,02:00,0.338,0.210,0.348,0.328,0.307,0.171,0.103,north,2.8,No
2018/02/27,02:10,0.339,0.209,0.347,0.329,0.309,0.173,0.103,north,3.6,No
2018/02/27,02:20,0.338,0.209,0.348,0.329,0.307,0.171,0.103,north,4.5,No
2018/02/27,02:30,0.339,0.211,0.347,0.330,0.307,0.172,0.103,north-northwest,2.5,No
2018/02/27,02:40,0.340,0.210,0.348,0.328,0.305,0.172,0.104,north-northwest,2.6,No
2018/02/27,02:50,0.340,0.211,0.347,0.328,0.308,0.172,0.102,north,3.7,No
2018/02/27,03:00,0.339,0.211,0.347,0.327,0.308,0.173,0.103,north-northwest,1.1,No
2018/02/27,03:10,0.339,0.210,0.346,0.328,0.308,0.172,0.103,north-northwest,2.9,No
2018/02/27,03:20,0.339,0.211,0.347,0.329,0.307,0.172,0.102,north,4.6,No
2018/02/27,03:30,0.339,0.210,0.348,0.328,0.307,0.172,0.102,north,4.7,No
2018/02/27,03:40,0.338,0.210,0.347,0.327,0.307,0.172,0.103,north,4.2,No
2018/02/27,03:50,0.339,0.210,0.348,0.329,0.306,0.171,0.104,north-northwest,2.7,No
2018/02/27,04:00,0.339,0.210,0.348,0.328,0.308,0.171,0.103,north,3.7,No
2018/02/27,04:10,0.339,0.211,0.347,0.328,0.309,0.172,0.103,north-northwest,2.8,No
2018/02/27,04:20,0.339,0.211,0.347,0.328,0.307,0.172,0.103,north-northwest,2.5,No
2018/02/27,04:30,0.339,0.211,0.347,0.328,0.307,0.172,0.103,north-northwest,0.8,No
2018/02/27,04:40,0.338,0.210,0.347,0.328,0.307,0.172,0.102,west-northwest,1.1,No
2018/02/27,04:50,0.339,0.211,0.346,0.328,0.306,0.171,0.103,west,4.0,No
2018/02/27,05:00,0.339,0.210,0.347,0.328,0.308,0.172,0.103,west-northwest,4.1,No
2018/02/27,05:10,0.338,0.211,0.348,0.328,0.307,0.172,0.103,west-northwest,3.7,No
2018/02/27,05:20,0.339,0.210,0.346,0.329,0.308,0.171,0.103,northwest,3.2,No
2018/02/27,05:30,0.340,0.211,0.347,0.328,0.308,0.172,0.102,north-northwest,2.3,No
2018/02/27,05:40,0.337,0.211,0.347,0.328,0.307,0.172,0.103,north-northwest,2.8,No
2018/02/27,05:50,0.340,0.211,0.347,0.328,0.307,0.173,0.103,north-northwest,2.7,No
2018/02/27,06:00,0.338,0.211,0.347,0.328,0.308,0.171,0.102,north-northwest,2.2,No
2018/02/27,06:10,0.339,0.209,0.346,0.328,0.306,0.173,0.103,north-northwest,1.2,No
2018/02/27,06:20,0.339,0.210,0.347,0.327,0.309,0.171,0.103,north,1.7,No
2018/02/27,06:30,0.339,0.211,0.348,0.328,0.306,0.171,0.103,north-northeast,1.7,No
2018/02/27,06:40,0.338,0.211,0.348,0.327,0.308,0.172,0.103,north-northwest,1.3,No
2018/02/27,06:50,0.338,0.210,0.347,0.327,0.306,0.171,0.103,-,CALM,No
2018/02/27,07:00,0.338,0.210,0.345,0.329,0.308,0.171,0.103,north-northwest,0.8,No
2018/02/27,07:10,0.339,0.210,0.346,0.328,0.308,0.171,0.103,-,CALM,No
2018/02/27,07:20,0.338,0.209,0.345,0.326,0.307,0.171,0.102,northwest,1.2,No
2018/02/27,07:30,0.338,0.210,0.347,0.327,0.307,0.170,0.104,west-northwest,1.7,No
2018/02/27,07:40,0.338,0.210,0.347,0.327,0.307,0.171,0.104,west-northwest,1.4,No
2018/02/27,07:50,0.338,0.211,0.347,0.327,0.307,0.172,0.103,west-northwest,1.2,No
2018/02/27,08:00,0.337,0.210,0.347,0.328,0.308,0.172,0.103,north,0.7,No
2018/02/27,08:10,0.338,0.209,0.346,0.326,0.307,0.172,0.103,-,CALM,No
2018/02/27,08:20,0.340,0.209,0.345,0.328,0.307,0.171,0.102,northeast,1.0,No
2018/02/27,08:30,0.339,0.211,0.347,0.328,0.307,0.170,0.103,east-northeast,1.3,No
2018/02/27,08:40,0.337,0.210,0.345,0.328,0.307,0.171,0.103,southeast,1.0,No
2018/02/27,08:50,0.338,0.210,0.347,0.328,0.307,0.172,0.102,east-northeast,1.0,No
2018/02/27,09:00,0.339,0.210,0.346,0.327,0.307,0.172,0.103,east-northeast,1.6,No
2018/02/27,09:10,0.339,0.210,0.346,0.327,0.307,0.172,0.102,east-northeast,1.9,No
2018/02/27,09:20,0.338,0.209,0.348,0.329,0.308,0.172,0.102,east-northeast,2.2,No
2018/02/27,09:30,0.337,0.209,0.345,0.327,0.308,0.171,0.102,east-northeast,2.2,No
2018/02/27,09:40,0.337,0.209,0.346,0.328,0.307,0.173,0.103,east-northeast,2.7,No
2018/02/27,09:50,0.338,0.209,0.345,0.328,0.308,0.171,0.102,east-northeast,2.1,Yes
2018/02/27,10:00,0.336,0.210,0.348,0.326,0.309,0.171,0.103,east-northeast,2.0,No
2018/02/27,10:10,0.337,0.211,0.347,0.327,0.308,0.171,0.103,east,2.2,No
2018/02/27,10:20,0.338,0.210,0.346,0.327,0.308,0.171,0.103,east,1.4,No
2018/02/27,10:30,0.336,0.210,0.347,0.328,0.307,0.171,0.102,-,CALM,No
2018/02/27,10:40,0.338,0.209,0.347,0.327,0.309,0.172,0.103,east-southeast,2.4,No
2018/02/27,10:50,0.336,0.210,0.345,0.327,0.308,0.172,0.102,southeast,1.8,No
2018/02/27,11:00,0.338,0.210,0.345,0.328,0.307,0.170,0.103,southeast,2.3,No
2018/02/27,11:10,0.338,0.211,0.347,0.330,0.310,0.171,0.103,southeast,2.6,No
2018/02/27,11:20,0.336,0.209,0.347,0.325,0.307,0.173,0.102,east-southeast,1.8,No
2018/02/27,11:30,0.337,0.211,0.344,0.328,0.310,0.172,0.103,southeast,1.7,No
2018/02/27,11:40,0.336,0.210,0.346,0.329,0.307,0.171,0.102,southeast,1.1,No
2018/02/27,11:50,0.338,0.209,0.344,0.326,0.308,0.172,0.103,southeast,1.6,No
2018/02/27,12:00,0.337,0.211,0.345,0.328,0.310,0.172,0.103,south-southeast,1.5,No
2018/02/27,12:10,0.338,0.211,0.345,0.328,0.307,0.171,0.103,southeast,1.7,Yes
2018/02/27,12:20,0.337,0.210,0.345,0.327,0.308,0.172,0.103,southeast,2.5,No
2018/02/27,12:30,0.337,0.210,0.346,0.329,0.308,0.172,0.102,east-southeast,1.9,No
2018/02/27,12:40,0.338,0.210,0.345,0.327,0.309,0.172,0.102,southeast,1.8,No
2018/02/27,12:50,0.338,0.212,0.345,0.328,0.309,0.172,0.102,south-southeast,1.4,No
2018/02/27,13:00,0.338,0.209,0.348,0.328,0.307,0.170,0.102,south-southwest,0.9,No
2018/02/27,13:10,0.338,0.210,0.345,0.326,0.311,0.172,0.102,southeast,1.8,No
2018/02/27,13:20,0.338,0.210,0.346,0.328,0.308,0.172,0.102,southeast,1.2,No
2018/02/27,13:30,0.339,0.210,0.349,0.328,0.308,0.172,0.103,southeast,2.4,No
2018/02/27,13:40,0.337,0.211,0.344,0.327,0.311,0.172,0.103,east-southeast,1.2,No
2018/02/27,13:50,0.338,0.210,0.346,0.327,0.308,0.172,0.103,southeast,2.6,No
2018/02/27,14:00,0.340,0.210,0.346,0.328,0.309,0.172,0.103,east-southeast,1.9,No
2018/02/27,14:10,0.338,0.211,0.345,0.327,0.309,0.172,0.103,southeast,1.7,No
2018/02/27,14:20,0.339,0.211,0.345,0.328,0.308,0.173,0.102,southeast,1.7,Yes
2018/02/27,14:30,0.337,0.210,0.348,0.329,0.309,0.172,0.103,southeast,1.6,Yes
2018/02/27,14:40,0.338,0.211,0.346,0.327,0.309,0.172,0.103,southeast,1.0,Yes
2018/02/27,14:50,0.341,0.211,0.346,0.327,0.309,0.172,0.103,south-southeast,1.7,Yes
2018/02/27,15:00,0.338,0.210,0.347,0.329,0.310,0.173,0.103,south-southeast,1.2,No
2018/02/27,15:10,0.337,0.211,0.348,0.330,0.308,0.173,0.104,east-southeast,1.2,Yes
2018/02/27,15:20,0.341,0.211,0.345,0.328,0.309,0.172,0.103,south,1.2,Yes
2018/02/27,15:30,0.339,0.211,0.347,0.328,0.308,0.173,0.103,south,1.2,No
2018/02/27,15:40,0.338,0.211,0.347,0.329,0.309,0.171,0.103,south,1.1,No
2018/02/27,15:50,0.338,0.211,0.346,0.329,0.308,0.172,0.103,south-southwest,0.6,No
2018/02/27,16:00,0.338,0.210,0.348,0.328,0.309,0.172,0.102,south-southwest,1.7,No
2018/02/27,16:10,0.338,0.210,0.347,0.327,0.308,0.172,0.103,-,CALM,No
2018/02/27,16:20,0.340,0.211,0.345,0.329,0.308,0.171,0.103,-,CALM,No
2018/02/27,16:30,0.337,0.212,0.348,0.328,0.308,0.172,0.103,-,CALM,No
2018/02/27,16:40,0.338,0.210,0.347,0.328,0.309,0.172,0.102,-,CALM,No
2018/02/27,16:50,0.337,0.210,0.347,0.328,0.308,0.172,0.103,east-northeast,0.9,No
2018/02/27,17:00,0.339,0.211,0.346,0.328,0.309,0.172,0.103,northeast,0.7,Yes
2018/02/27,17:10,0.339,0.209,0.347,0.328,0.307,0.171,0.102,east-northeast,1.3,Yes
2018/02/27,17:20,0.338,0.210,0.345,0.329,0.309,0.172,0.103,east-northeast,1.1,Yes
2018/02/27,17:30,0.338,0.211,0.345,0.327,0.307,0.172,0.103,-,CALM,Yes
2018/02/27,17:40,0.337,0.212,0.346,0.327,0.307,0.173,0.102,-,CALM,No
2018/02/27,17:50,0.338,0.211,0.346,0.330,0.309,0.172,0.103,-,CALM,No
2018/02/27,18:00,0.339,0.211,0.345,0.327,0.309,0.172,0.103,southwest,1.0,Yes
2018/02/27,18:10,0.338,0.210,0.345,0.327,0.307,0.172,0.103,west-southwest,0.7,Yes
2018/02/27,18:20,0.338,0.210,0.347,0.328,0.309,0.172,0.102,west-northwest,1.2,No
2018/02/27,18:30,0.338,0.210,0.345,0.330,0.308,0.173,0.103,west-northwest,1.2,No
2018/02/27,18:40,0.338,0.212,0.346,0.328,0.308,0.172,0.102,northwest,1.3,No
2018/02/27,18:50,0.337,0.210,0.346,0.329,0.306,0.172,0.103,west-northwest,1.6,Yes
2018/02/27,19:00,0.339,0.210,0.346,0.328,0.308,0.173,0.103,southwest,0.6,Yes
2018/02/27,19:10,0.337,0.213,0.345,0.329,0.307,0.172,0.103,west-southwest,0.8,No
2018/02/27,19:20,0.338,0.211,0.346,0.328,0.307,0.172,0.103,-,CALM,No
2018/02/27,19:30,0.339,0.211,0.346,0.327,0.309,0.172,0.102,west-southwest,1.5,No
2018/02/27,19:40,0.339,0.212,0.346,0.329,0.308,0.173,0.102,west-southwest,1.2,No
2018/02/27,19:50,0.339,0.211,0.347,0.330,0.308,0.172,0.103,west,1.3,No
2018/02/27,20:00,0.337,0.211,0.347,0.328,0.309,0.172,0.103,southwest,1.1,No
2018/02/27,20:10,0.340,0.211,0.346,0.328,0.308,0.171,0.103,west-southwest,1.0,No
2018/02/27,20:20,0.339,0.211,0.348,0.330,0.306,0.172,0.104,southwest,1.5,No
2018/02/27,20:30,0.338,0.211,0.346,0.329,0.309,0.172,0.103,south-southwest,1.9,No
2018/02/27,20:40,0.339,0.211,0.346,0.327,0.309,0.172,0.103,south-southwest,2.1,No
2018/02/27,20:50,0.339,0.211,0.346,0.328,0.310,0.172,0.103,south,2.6,No
2018/02/27,21:00,0.339,0.211,0.348,0.329,0.309,0.172,0.103,south-southeast,2.2,No
2018/02/27,21:10,0.340,0.211,0.345,0.329,0.307,0.173,0.103,south,2.6,No
2018/02/27,21:20,0.338,0.212,0.347,0.329,0.308,0.173,0.105,south,3.1,No
2018/02/27,21:30,0.338,0.212,0.347,0.329,0.309,0.173,0.103,south,2.5,No
2018/02/27,21:40,0.339,0.211,0.347,0.329,0.308,0.172,0.103,south,4.2,No
2018/02/27,21:50,0.338,0.211,0.348,0.329,0.309,0.174,0.104,south-southwest,5.3,No
2018/02/27,22:00,0.339,0.212,0.346,0.328,0.309,0.171,0.104,south-southwest,5.6,No
2018/02/27,22:10,0.338,0.211,0.345,0.328,0.308,0.171,0.103,south-southwest,5.3,No
2018/02/27,22:20,0.339,0.211,0.347,0.328,0.307,0.172,0.103,south-southwest,5.4,No
2018/02/27,22:30,0.339,0.211,0.347,0.329,0.307,0.173,0.103,south-southwest,5.7,No
2018/02/27,22:40,0.339,0.212,0.347,0.328,0.307,0.173,0.102,south-southwest,6.8,No
2018/02/27,22:50,0.341,0.211,0.347,0.328,0.310,0.173,0.104,south-southwest,6.5,No
2018/02/27,23:00,0.339,0.212,0.347,0.329,0.306,0.172,0.103,south-southwest,6.7,No
2018/02/27,23:10,0.339,0.211,0.346,0.328,0.307,0.172,0.104,south-southwest,5.9,No
2018/02/27,23:20,0.339,0.210,0.347,0.328,0.308,0.172,0.103,south-southwest,7.0,No
2018/02/27,23:30,0.339,0.211,0.347,0.328,0.308,0.172,0.103,south-southwest,8.2,No
2018/02/27,23:40,0.339,0.210,0.345,0.330,0.307,0.172,0.103,south-southwest,8.8,No
2018/02/27,23:50,0.338,0.210,0.346,0.329,0.307,0.171,0.103,south-southwest,9.8,No
